Location: Tehachapi Municipal Airport
(35.1300°N, 118.4400°W)
Time: 02:09:46
(UTC-08:00)

BREEZE M DEB (TANK) - Visible Passes

Search period start: 01 February 2015 00:00
Search period end: 11 February 2015 00:00
Orbit: 298 x 12164 km, 49.5° (Epoch: 29 January)

Date Brightness Start Highest point End Pass type
(mag) Time Alt. Az. Time Alt. Az. Time Alt. Az.
01 Feb 8.6 03:31:58 10° SSW 04:48:55 73° SE 06:00:13 10° NE visible
02 Feb 8.6 02:59:44 10° S 04:10:48 66° ESE 05:26:15 10° NE visible
03 Feb 8.6 02:27:56 10° S 03:33:20 59° ESE 04:51:58 10° NE visible
04 Feb 8.6 01:56:36 10° S 02:56:31 52° ESE 04:17:18 10° NE visible
04 Feb 8.4 06:08:33 10° WSW 07:55:03 70° NNW 08:34:29 10° ENE visible
05 Feb 8.6 01:25:51 10° SSE 02:20:18 45° ESE 03:42:08 10° NE visible
05 Feb 8.6 05:32:32 10° SW 07:15:18 74° NNW 08:01:09 10° ENE visible
06 Feb 8.6 00:55:52 10° SSE 01:44:39 38° ESE 03:06:20 10° NE visible
06 Feb 8.6 04:57:18 10° SW 06:34:57 79° NNW 07:27:39 10° ENE visible
07 Feb 8.6 00:26:58 10° SE 01:09:29 31° ESE 02:29:39 10° NE visible
07 Feb 8.6 04:22:43 10° SW 05:54:15 84° NW 06:53:57 10° ENE visible
07 Feb 8.6 23:59:46 10° SE 00:34:43 25° ESE 01:51:44 10° NE visible
08 Feb 8.5 03:48:40 10° SSW 05:13:38 90° NW 06:20:03 10° NE visible
08 Feb 8.7 23:35:25 10° ESE 00:00:18 18° E 01:11:45 10° NE visible
09 Feb 8.4 03:15:05 10° SSW 04:33:25 83° SE 05:45:56 10° NE visible
09 Feb 8.9 23:16:51 10° ESE 23:26:11 12° E 00:27:34 10° ENE visible
10 Feb 8.4 02:41:55 10° SSW 03:53:52 77° SE 05:11:34 10° NE visible
